Winfield, KS

8:14 AM CST on December 08, 2019 (GMT -0600)
Strother

Weather History for KWLD - October, 2019

Change the Weather History Date:

Monday, October 28, 2019

  Actual Average Record
Temperature  
Mean Temperature 38 °F -  
Max Temperature 44 °F 63 °F 82 °F (2016)
Min Temperature 32 °F 45 °F 24 °F (2017)
Degree Days  
Heating Degree Days 27    
Moisture  
Dew Point 30 °F    
Average Humidity 75    
Maximum Humidity 89    
Minimum Humidity 60    
Precipitation  
Precipitation 0.00 in - - ()
Sea Level Pressure  
Sea Level Pressure 30.13 in    
Wind  
Wind Speed 12 mph ()    
Max Wind Speed 17 mph    
Max Gust Speed 24 mph    
Visibility 9.3 miles    
Events Snow    
Averages and records for this station are not official NWS values.
T = Trace of Precipitation, MM = Missing Value Source: Averaged Metar Reports

Daily Weather History Graph

Daily Weather History Graph

Search for Another Location

Airport or City:

Astronomy

Oct. 28, 2019 Rise Set
Actual Time 7:48 AM CDT 6:35 PM CDT
Civil Twilight 7:21 AM CDT 7:01 PM CDT
Nautical Twilight 6:50 AM CDT 7:32 PM CDT
Astronomical Twilight 6:20 AM CDT 8:02 PM CDT
Moon 8:11 AM CDT (10/28) 7:21 PM CDT (10/28)
Length of Visible Light 11h 40m
Length of Day
10h 46m
New Moon, 0% of the Moon is Illuminated
Oct 28
New Moon
Nov 4
First Quarter
Nov 12
Full
Nov 19
Last Quarter
Nov 26
New

Hourly Weather History & Observations

Time (CDT) Temp. Windchill Dew Point Humidity Pressure Visibility Wind Dir Wind Speed Gust Speed Precip Events Conditions
12:54 AM 39.0 °F 31.0 °F 33.1 °F 79% 30.11 in 10.0 mi NNW 13.8 mph - N/A   Clear
1:54 AM 41.0 °F 32.5 °F 34.0 °F 76% 30.11 in 10.0 mi North 17.3 mph - N/A   Overcast
2:54 AM 42.1 °F 34.2 °F 33.1 °F 70% 30.12 in 10.0 mi North 16.1 mph - N/A   Overcast
3:54 AM 42.1 °F 34.9 °F 33.1 °F 70% 30.12 in 10.0 mi North 13.8 mph - N/A   Overcast
4:54 AM 41.0 °F 32.5 °F 32.0 °F 70% 30.11 in 10.0 mi North 17.3 mph 24.2 mph N/A   Overcast
5:54 AM 39.9 °F 32.9 °F 32.0 °F 73% 30.13 in 10.0 mi North 11.5 mph - N/A   Overcast
6:54 AM 39.0 °F 29.9 °F 30.9 °F 73% 30.13 in 10.0 mi North 17.3 mph - N/A   Overcast
7:54 AM 37.9 °F 28.5 °F 28.0 °F 68% 30.14 in 10.0 mi North 17.3 mph 24.2 mph N/A   Overcast
8:40 AM 37.9 °F 30.0 °F 27.0 °F 65% 30.13 in 10.0 mi North 12.7 mph - N/A   Overcast
8:54 AM 37.9 °F 30.5 °F 27.0 °F 65% 30.14 in 10.0 mi North 11.5 mph - N/A   Overcast
9:54 AM 37.9 °F 30.0 °F 27.0 °F 65% 30.15 in 10.0 mi North 12.7 mph - N/A   Overcast
10:54 AM 39.0 °F 31.0 °F 27.0 °F 62% 30.14 in 10.0 mi NNE 13.8 mph - N/A   Overcast
11:54 AM 39.9 °F 32.5 °F 27.0 °F 60% 30.13 in 10.0 mi North 12.7 mph - N/A   Overcast
12:54 PM 41.0 °F 35.2 °F 28.9 °F 62% 30.10 in 10.0 mi NNE 9.2 mph - N/A   Overcast
1:54 PM 41.0 °F 34.3 °F 28.9 °F 62% 30.08 in 10.0 mi North 11.5 mph - N/A   Overcast
2:54 PM 41.0 °F 33.1 °F 28.9 °F 62% 30.06 in 10.0 mi NNW 15.0 mph - N/A   Overcast
3:54 PM 39.0 °F 31.8 °F 30.0 °F 70% 30.06 in 10.0 mi North 11.5 mph - N/A   Overcast
4:54 PM 37.0 °F 28.5 °F 30.9 °F 79% 30.11 in 6.0 mi NNW 13.8 mph - 0.00 in Snow Light Snow
5:13 PM 36.0 °F 27.1 °F 32.0 °F 86% 30.08 in 6.0 mi NNW 13.8 mph - 0.00 in Snow Light Snow
5:25 PM 36.0 °F 28.0 °F 33.1 °F 89% 30.06 in 5.0 mi North 11.5 mph - 0.00 in Snow Light Snow
5:47 PM 36.0 °F 29.0 °F 33.1 °F 89% 30.07 in 9.0 mi North 9.2 mph - 0.00 in Snow Light Snow
5:54 PM 36.0 °F 29.0 °F 33.1 °F 89% 30.10 in 9.0 mi NNW 9.2 mph - 0.00 in   Overcast
6:39 PM 36.0 °F 27.1 °F 33.1 °F 89% 30.10 in 9.0 mi NNW 13.8 mph - 0.00 in Snow Light Snow
6:54 PM 36.0 °F 26.7 °F 33.1 °F 89% 30.14 in 9.0 mi NNW 15.0 mph - 0.00 in   Overcast
7:54 PM 36.0 °F 28.5 °F 33.1 °F 89% 30.16 in 9.0 mi NNW 10.4 mph - 0.00 in Snow Light Snow
8:03 PM 36.0 °F 29.6 °F 33.1 °F 89% 30.14 in 9.0 mi NNW 8.1 mph - 0.00 in   Overcast
8:33 PM 36.0 °F 27.1 °F 30.9 °F 82% 30.14 in 9.0 mi North 13.8 mph - 0.00 in   Overcast
8:54 PM 36.0 °F 28.5 °F 30.0 °F 79% 30.16 in 10.0 mi North 10.4 mph - 0.00 in   Overcast
9:03 PM 36.0 °F 27.1 °F 30.0 °F 79% 30.13 in 10.0 mi North 13.8 mph - N/A   Overcast
9:54 PM 34.0 °F 28.8 °F 30.0 °F 85% 30.19 in 10.0 mi NNW 5.8 mph - N/A   Mostly Cloudy
10:40 PM 34.0 °F 25.5 °F 26.1 °F 73% 30.18 in 9.0 mi NNW 11.5 mph - 0.00 in Snow Light Snow
10:54 PM 34.0 °F 25.0 °F 25.0 °F 70% 30.21 in 9.0 mi NNW 12.7 mph - 0.00 in Snow Light Snow
11:54 PM 32.0 °F 22.5 °F 24.1 °F 73% 30.22 in 9.0 mi North 12.7 mph - 0.00 in Snow Light Snow